Location: Kuffner-Sternwarte
(48.2130°N, 16.2960°E)
Time: 06:47:36
(UTC+02:00)

COROT - Pass Details

Date: 15 August 2018
Orbit: 602 x 886 km, 90.0° (Epoch: 17 October)

Event Time Altitude Azimuth Distance (km) Brightness Sun altitude
Rises 02:47:32 0° 124° (SE) 3,171 9.1 -23.2°
Reaches altitude 10° 02:51:08 10° 97° (E) 2,186 8.6 -22.9°
Maximum altitude 02:53:15 13° 71° (ENE) 1,956 8.7 -22.7°
Drops below altitude 10° 02:55:19 10° 44° (NE) 2,118 9.3 -22.6°
Sets 02:58:41 0° 17° (NNE) 2,981 10.4 -22.3°
